Regional Weather Roundup
Issued by NWS Kansas City/Pleasant Hill, MO

Home | Current Version | Previous Version | Text Only | Print | Product List | Glossary On
Versions: 1 2 3 4 5 6 7 8 9 10 11 12 13 14 15 16 17 18 19 20 21 22 23 24 25 26 27 28 29 30 31 32 33 34 35 36 37 38 39 40 41 42 43 44 45 46 47 48 49 50
000
ASUS43 KEAX 232010
RWREAX

WEATHER ROUNDUP FOR EASTERN KANSAS AND NORTHWEST MISSOURI
NATIONAL WEATHER SERVICE KANSAS CITY/PLEASANT HILL MO
300 PM CDT WED JUL 23 2014

KSZ040-057-103>105-MOZ028-029-037-043-232100-
...KANSAS CITY METROPOLITAN AREA...

CITY           SKY/WX    TMP DP  RH WIND       PRES   REMARKS
K.C. INTL      PTSUNNY   85  66  53 NE12      30.14F
K.C. DOWNTOWN  SUNNY     88  65  46 N14       30.12F HX  90
LEES SUMMIT    SUNNY     87  64  46 N12G22    30.14F
OLATHE - IXD   SUNNY     89  60  37 N13G21    30.14F
OLATHE - OJC   SUNNY     89  62  40 NE13      30.13F
LAWRENCE       SUNNY     87  66  49 NE8       30.13F

$$

MOZ001>008-011>017-020>025-030>033-038>040-044>046-053-054-232100-
...NORTHERN AND CENTRAL MISSOURI...

CITY           SKY/WX    TMP DP  RH WIND       PRES   REMARKS
ST. JOSEPH     SUNNY     85  66  53 NE9G17    30.15F
MOSBY          CLEAR     84  61  45 NE9       30.13F
WHITEMAN AFB   MOSUNNY   86  62  44 N15       30.11F
CLINTON        SUNNY     88  72  58 N14       30.10F HX  94
SEDALIA        MOSUNNY   87  68  52 N14       30.12F HX  90
WARSAW         NOT AVBL
MARSHALL       MOSUNNY   88  68  51 N13       30.12S HX  91
CHILLICOTHE      N/A     87  62  43 N8        30.14F
KIRKSVILLE     SUNNY     84  63  49 NE12      30.15F

$$

MOZ041-047>049-056>058-063>065-088>090-097-232100-
...EASTERN AND SOUTHERN MISSOURI...

CITY           SKY/WX    TMP DP  RH WIND       PRES   REMARKS
ST. LOUIS INTL PTSUNNY   83  68  60 N14       30.07S
SPIRIT OF STL  PTSUNNY   85  69  58 NE13G22   30.06F
COLUMBIA       MOSUNNY   88  66  48 N16G23    30.10F HX  90
JEFFERSON CITY MOSUNNY   85  67  54 N15G23    30.07F
MEXICO         MOSUNNY   86  70  58 N10G16    30.10  HX  90
ROLLA          MOSUNNY   89  66  46 N12       30.05F HX  91
OSAGE BEACH    SUNNY     90  68  48 NW10      30.06S HX  93
SPRINGFIELD    MOSUNNY   91  74  57 N21G28    30.05F HX 100
BRANSON        PTSUNNY   95  73  49 N21G29    30.02  HX 105
NEVADA         SUNNY     88  70  55 N9G16     30.11F HX  92
JOPLIN         CLOUDY    79  70  74 NW12      30.12F
WEST PLAINS    PTSUNNY   79  64  60 CALM      30.02F

$$

IAZ060-094-KSZ022-034>040-054-083-096-NEZ052-066-093-232100-
...KANSAS...SOUTHEAST NEBRASKA AND IOWA...

CITY           SKY/WX    TMP DP  RH WIND       PRES   REMARKS
TOPEKA         SUNNY     91  64  40 NE12G17   30.14S HX  92
MANHATTAN      PTSUNNY   90  62  39 NE7       30.17S HX  90
EMPORIA        CLOUDY    85  66  53 NE6       30.16R
CHANUTE        CLOUDY    84  74  71 E7        30.12S HX  91
WICHITA        PTSUNNY   84  67  56 N7        30.17S
OMAHA          MOSUNNY   84  58  40 NE8       30.20F
LINCOLN        SUNNY     86  57  37 VRB5G16   30.21F
FALLS CITY     MOSUNNY   85  65  51 NE8       30.17S
LAMONI         SUNNY     82  62  50 N8G16     30.17F
DES MOINES     MOSUNNY   84  58  40 NE12      30.17F

$$



USA.gov is the U.S. government's official web portal to all federal, state and local government web resources and services.